STARLINK-32767, 62601

Orbit data source: Space-Track

STARLINK-32767, 62601 is a payload satellite owned by SpaceX/Seattle (US) in LEO that was launched on Mon, 13 Jan 2025 UTC via an FALCON 9 launch vehicle from the Air Force Eastern Test Range (AFETR). Payload-class satellites include a variety of spacecraft equipped with specific instruments for various scientific and technological missions. These include communications satellites like Starlink; space stations such as the ISS; scientific satellites like the Hubble; Earth observation satellites from companies like Planet Labs, Umbra, and HawkEye 360; GPS; miniature CubeSats for education and research; and military/defense satellites.

Loading next visibility...
Identifier
62601, 2025-008Q
Orbit
LEO
Last TLE update
16 hours ago
Origin
Manufacturer
SpaceX/Seattle
Mission
Operational Commercial Communications
Bus & Motor
STARLINK V2M, Unknown motor
Mass
730 kg wet, ~700 kg dry
Launch date (UTC)
2025-01-13 (4 months ago)
Launch vehicle
FALCON 9
Launch site
Air Force Eastern Test Range (AFETR)
Object type
Payload
Rocket body
Debris
Shape & HBR
Box + 2 Pan, 29 m
Radar Cross Section
33.884 m², Large (>1 m²)

Expand to show TLE details & history

TLE from 16 hours ago
0 STARLINK-32767
1 62601U 25008Q   25128.58049132  .00001115  00000-0  50056-4 0  9998
2 62601  43.0020 200.8631 0000885 275.5415  84.5335 15.27573589 18960
Epoch: 2025-05-08T13:55Z
Definitive object data (Epoch: 2025-05-08T13:55:54.45Z)
Latitude
-0.00005°
Longitude
125.23723°
Altitude
482.786 km
Speed
7.626 km/s
True Right ascension
13h 23m 27s
True Declination
0° 00' 00"
Sunlit
Object was in full shadow at TLE epoch
Visualization TLE readout
Latitude
-1.63531°
Longitude
-56.89933°
Altitude
483.146 km
Speed
7.625 km/s
Apparent Right ascension
01h 47m 46s
Apparent Declination
-20° 12' 32"
Sunlit
Object is in daylight
Visualization observer readout
Local Sidereal Time
14:33:57
Azimuth
30.023° NE
Elevation
-67.951°
Doppler factor
1
Orbital elements
Apogee altitude
485.621 km
Perigee altitude
484.406 km
Semi-major axis
6,863.15 km
Eccentricity
0.0000885
Inclination
43.002°
RAAN
200.8631°
Arg. of periapsis
275.5415°
True anomaly
84.5436°
Mean anomaly
84.5335°
Eccentric anomaly
84.53855°
Mean motion
3.81731 °/min
BSTAR
0.000050056
Orbital period
94.31 mins
Loading maneuver chart data...
Loading SW <> Apogee altitude chart data...
Loading historical data...
Loading historical data...
Loading historical data...
Loading historical data...
Loading historical data...
Loading historical data...
Loading historical data...

STARLINK-32767 Visibility forecast

Observer location: undefined°, undefined°

Span
Click to sort rows by Start time (UTC) header in descending order
Start Az.
Max El. time (UTC)
Max El. Az.
Max El.
End time (UTC)
End Az.
4 mins2025-05-09 07:23:08.084Z184.481° SSW2025-05-09 07:25:08.084Z145.305° SSE19.34°2025-05-09 07:27:08.084Z105.685° ESE
6 mins2025-05-09 09:01:08.084Z247.587° W2025-05-09 09:04:08.084Z86.284° E43.356°2025-05-09 09:07:08.084Z72.612° E
5 mins2025-05-09 10:41:08.084Z293.664° NW2025-05-09 10:43:08.084Z14.321° NNE37.649°2025-05-09 10:46:08.084Z73.936° E
5 mins2025-05-09 12:20:08.084Z292.726° NW2025-05-09 12:22:08.084Z32.098° NE44.255°2025-05-09 12:25:08.084Z101.852° ESE
4 mins2025-05-09 13:59:08.084Z254.744° W2025-05-09 14:01:08.084Z201.779° SSW25.483°2025-05-09 14:03:08.084Z159.865° S
|